• In Latvia
  • List of Countries
  • For 7 days
  • Water Temperature
  • Satellite Maps
  • Weather Map
  • Weather Widgets
  • user-avatar
    Login

    Hourly Weather Wiktoria

    Today, 23 September, Saturday

    Time Temperature Precipitation Wind Pressure Humidity
    00:00 +14°C° 0 mm 3 mps 742 mmHg 60%
    01:00 +14°C° 0 mm 2 mps 742 mmHg 58%
    02:00 +12°C° 0 mm 3 mps 741 mmHg 56%
    03:00 +12°C° 0 mm 3 mps 741 mmHg 54%
    04:00 +13°C° 0 mm 4 mps 740 mmHg 44%
    05:00 +13°C° 0 mm 4 mps 740 mmHg 48%
    06:00 +13°C° 0 mm 4 mps 739 mmHg 51%
    07:00 +13°C° 0 mm 5 mps 739 mmHg 54%
    08:00 +15°C° 0 mm 5 mps 738 mmHg 55%
    09:00 +17°C° 0 mm 6 mps 737 mmHg 55%
    10:00 +21°C° 0 mm 7 mps 737 mmHg 52%
    11:00 +23°C° 0 mm 7 mps 736 mmHg 53%
    12:00 +27°C° 0 mm 6 mps 735 mmHg 54%
    13:00 +29°C° 0 mm 6 mps 734 mmHg 54%
    14:00 +29°C° 0 mm 5 mps 733 mmHg 55%
    15:00 +29°C° 0 mm 5 mps 733 mmHg 55%
    16:00 +28°C° 0 mm 5 mps 732 mmHg 55%
    17:00 +26°C° 0 mm 5 mps 733 mmHg 53%
    18:00 +24°C° 0 mm 6 mps 734 mmHg 51%
    19:00 +22°C° 0 mm 7 mps 735 mmHg 50%
    20:00 +20°C° 0 mm 6 mps 736 mmHg 53%
    21:00 +17°C° 0 mm 5 mps 737 mmHg 56%
    22:00 +15°C° 0 mm 4 mps 738 mmHg 59%
    23:00 +13°C° 0 mm 4 mps 739 mmHg 65%

    Tomorrow, 24 September, Sunday

    Time Temperature Precipitation Wind Pressure Humidity
    00:00 +12°C° 0 mm 3 mps 739 mmHg 71%
    01:00 +10°C° 0 mm 2 mps 739 mmHg 76%
    02:00 +9°C° 0 mm 2 mps 739 mmHg 79%
    03:00 +9°C° 0 mm 2 mps 739 mmHg 83%
    04:00 +8°C° 0 mm 2 mps 739 mmHg 86%
    05:00 +8°C° 0 mm 3 mps 739 mmHg 86%
    06:00 +9°C° 0 mm 3 mps 740 mmHg 85%
    07:00 +8°C° 0 mm 4 mps 740 mmHg 85%
    08:00 +9°C° 0.2 mm 5 mps 740 mmHg 84%
    09:00 +10°C° 0.2 mm 6 mps 740 mmHg 82%
    10:00 +12°C° 0.2 mm 7 mps 741 mmHg 81%
    11:00 +14°C° 0.2 mm 7 mps 740 mmHg 76%
    12:00 +15°C° 0.2 mm 8 mps 740 mmHg 71%
    13:00 +16°C° 0.2 mm 8 mps 740 mmHg 66%
    14:00 +16°C° 0.2 mm 8 mps 739 mmHg 66%
    15:00 +16°C° 0.2 mm 8 mps 739 mmHg 65%
    16:00 +15°C° 0.2 mm 7 mps 739 mmHg 64%
    17:00 +14°C° 0 mm 6 mps 739 mmHg 64%
    18:00 +13°C° 0 mm 5 mps 740 mmHg 64%
    19:00 +12°C° 0 mm 4 mps 740 mmHg 64%
    20:00 +11°C° 0 mm 4 mps 741 mmHg 65%
    21:00 +11°C° 0 mm 4 mps 741 mmHg 65%
    22:00 +10°C° 0 mm 4 mps 742 mmHg 66%
    23:00 +10°C° 0 mm 4 mps 742 mmHg 69%

    Day after tomorrow, 25 September, Monday

    Time Temperature Precipitation Wind Pressure Humidity
    00:00 +8°C° 0 mm 4 mps 743 mmHg 72%
    01:00 +8°C° 0 mm 4 mps 743 mmHg 75%
    02:00 +7°C° 0 mm 4 mps 743 mmHg 80%
    03:00 +8°C° 0 mm 3 mps 743 mmHg 85%
    04:00 +7°C° 0 mm 3 mps 743 mmHg 90%
    05:00 +7°C° 0 mm 3 mps 744 mmHg 90%
    06:00 +7°C° 0 mm 3 mps 744 mmHg 91%
    07:00 +7°C° 0 mm 3 mps 744 mmHg 92%
    08:00 +9°C° 0 mm 3 mps 745 mmHg 88%
    09:00 +10°C° 0 mm 4 mps 745 mmHg 84%
    10:00 +12°C° 0 mm 5 mps 746 mmHg 80%
    11:00 +13°C° 0.2 mm 5 mps 746 mmHg 78%
    12:00 +13°C° 0.2 mm 5 mps 746 mmHg 77%
    13:00 +14°C° 0.2 mm 5 mps 746 mmHg 75%
    14:00 +14°C° 0.4 mm 5 mps 746 mmHg 76%
    15:00 +14°C° 0.4 mm 5 mps 746 mmHg 76%
    16:00 +14°C° 0.4 mm 4 mps 745 mmHg 77%
    17:00 +13°C° 0.3 mm 4 mps 746 mmHg 82%
    18:00 +11°C° 0.3 mm 3 mps 747 mmHg 87%
    19:00 +9°C° 0.3 mm 2 mps 747 mmHg 92%
    20:00 +9°C° 0 mm 2 mps 748 mmHg 93%
    21:00 +8°C° 0 mm 2 mps 748 mmHg 93%
    22:00 +7°C° 0 mm 2 mps 749 mmHg 93%
    23:00 +6°C° 0 mm 2 mps 749 mmHg 93%

    26 September, Tuesday

    Time Temperature Precipitation Wind Pressure Humidity
    00:00 +6°C° 0 mm 2 mps 749 mmHg 93%
    01:00 +5°C° 0 mm 2 mps 749 mmHg 92%
    02:00 +5°C° 0 mm 2 mps 749 mmHg 93%
    03:00 +4°C° 0 mm 2 mps 749 mmHg 93%
    04:00 +4°C° 0 mm 2 mps 749 mmHg 93%
    05:00 +4°C° 0 mm 2 mps 749 mmHg 93%
    06:00 +4°C° 0 mm 2 mps 749 mmHg 93%
    07:00 +5°C° 0 mm 2 mps 749 mmHg 93%
    08:00 +8°C° 0 mm 2 mps 749 mmHg 84%
    09:00 +10°C° 0 mm 2 mps 749 mmHg 75%
    10:00 +14°C° 0 mm 2 mps 749 mmHg 66%
    11:00 +15°C° 0 mm 2 mps 749 mmHg 63%
    12:00 +17°C° 0 mm 2 mps 748 mmHg 59%
    13:00 +18°C° 0 mm 2 mps 747 mmHg 55%
    14:00 +18°C° 0 mm 2 mps 747 mmHg 58%
    15:00 +19°C° 0 mm 3 mps 746 mmHg 60%
    16:00 +19°C° 0 mm 3 mps 745 mmHg 63%
    17:00 +17°C° 0 mm 3 mps 745 mmHg 66%
    18:00 +16°C° 0 mm 3 mps 745 mmHg 69%
    19:00 +14°C° 0 mm 3 mps 745 mmHg 73%
    20:00 +14°C° 0.1 mm 3 mps 744 mmHg 70%
    21:00 +13°C° 0.1 mm 4 mps 743 mmHg 67%
    22:00 +13°C° 0.1 mm 4 mps 742 mmHg 63%
    23:00 +13°C° 0.1 mm 5 mps 742 mmHg 65%

    27 September, Wednesday

    Time Temperature Precipitation Wind Pressure Humidity
    00:00 +13°C° 0.1 mm 5 mps 741 mmHg 66%
    01:00 +13°C° 0.1 mm 5 mps 740 mmHg 68%
    02:00 +13°C° 0 mm 5 mps 739 mmHg 65%
    03:00 +12°C° 0 mm 4 mps 739 mmHg 62%
    04:00 +12°C° 0 mm 3 mps 739 mmHg 58%
    05:00 +12°C° 0 mm 4 mps 739 mmHg 62%
    06:00 +11°C° 0 mm 4 mps 740 mmHg 66%
    07:00 +11°C° 0 mm 4 mps 740 mmHg 70%
    08:00 +13°C° 0 mm 5 mps 740 mmHg 68%
    09:00 +15°C° 0 mm 7 mps 741 mmHg 67%
    10:00 +16°C° 0 mm 8 mps 741 mmHg 65%
    11:00 +17°C° 0 mm 9 mps 741 mmHg 62%
    12:00 +18°C° 0 mm 9 mps 741 mmHg 59%
    13:00 +19°C° 0 mm 9 mps 741 mmHg 56%
    14:00 +18°C° 0 mm 8 mps 742 mmHg 58%
    15:00 +17°C° 0 mm 8 mps 742 mmHg 60%
    16:00 +17°C° 0 mm 7 mps 743 mmHg 63%
    17:00 +15°C° 0 mm 6 mps 744 mmHg 67%
    18:00 +13°C° 0 mm 4 mps 745 mmHg 72%
    19:00 +12°C° 0 mm 3 mps 746 mmHg 77%
    20:00 +10°C° 0 mm 3 mps 746 mmHg 81%
    21:00 +9°C° 0 mm 3 mps 747 mmHg 85%
    22:00 +8°C° 0 mm 2 mps 747 mmHg 89%
    23:00 +7°C° 0 mm 2 mps 747 mmHg 91%

    28 September, Thursday

    Time Temperature Precipitation Wind Pressure Humidity
    00:00 +6°C° 0 mm 2 mps 747 mmHg 93%
    01:00 +5°C° 0 mm 2 mps 748 mmHg 94%
    02:00 +5°C° 0 mm 2 mps 748 mmHg 94%
    03:00 +4°C° 0 mm 2 mps 748 mmHg 94%
    04:00 +5°C° 0 mm 1 mps 748 mmHg 94%
    05:00 +6°C° 0 mm 1 mps 749 mmHg 92%
    06:00 +6°C° 0 mm 1 mps 749 mmHg 91%
    07:00 +6°C° 0 mm 0 mps 750 mmHg 89%
    08:00 +9°C° 0 mm 1 mps 750 mmHg 81%
    09:00 +10°C° 0 mm 2 mps 750 mmHg 72%
    10:00 +13°C° 0 mm 2 mps 750 mmHg 64%
    11:00 +13°C° 0 mm 3 mps 750 mmHg 61%
    12:00 +14°C° 0 mm 3 mps 750 mmHg 59%
    13:00 +15°C° 0 mm 4 mps 749 mmHg 56%
    14:00 +15°C° 0 mm 4 mps 749 mmHg 56%
    15:00 +17°C° 0 mm 4 mps 749 mmHg 57%
    16:00 +17°C° 0 mm 3 mps 749 mmHg 57%
    17:00 +14°C° 0 mm 3 mps 749 mmHg 64%
    18:00 +12°C° 0 mm 3 mps 750 mmHg 71%
    19:00 +10°C° 0 mm 2 mps 750 mmHg 78%
    20:00 +9°C° 0 mm 2 mps 751 mmHg 80%
    21:00 +8°C° 0 mm 2 mps 751 mmHg 82%
    22:00 +7°C° 0 mm 2 mps 752 mmHg 85%
    23:00 +6°C° 0 mm 2 mps 752 mmHg 87%
    Show more